Content
SEND FEEDBACK

Daily
Averages
Monthly
Summary
United States of America

BOX ELDER, MONTANA


Home > North America > United States > Montana
Elevation: 813 meters     Latitude: 48 30N     Longitude: 109 48W

WEATHER
 
SELECT A DAY
Number of Records: 193,020;   Date Range: 1/1/95 - 7/29/14
 
SHARE

PRINT THIS DATA

[ ← Previous Day ]
WEATHER ALMANAC - 31 JANUARY, 2013
[ Next Day → ]
[ °F ]   °C
Weather ElementAverageHighLow
Temperature-17.6 °C-12.8 °C (10:53 pm)-19.4 °C (12:53 am)
Dewpoint-20.9 °C-15.6 °C (10:53 pm)-23.3 °C (2:53 am)
Humidity75.2 %80 % (4:53 pm)71 % (12:10 am)
Barometer1024.7 hPa1030.8 hPa (1:53 am)1019.3 hPa (10:53 pm)
Wind Speed6.4 km/h13 km/h (1:53 pm)
Weather ElementAverage
Visibility7.7 km
Wind DirectionSSE (155 °)

Weather ElementTotal
Precipitation6.1 mm
Heating Degree Days34.4 (Base 18.3)
Averaged from 46 records on 31 January, 2013
WEATHER CONDITIONS BREAKOUT
WIND DIRECTION BREAKOUT
WEATHER BY HOUR - 31 JANUARY, 2013
[ °F ]   °C
Local TimeTemperatureDewpointHumidityBarometerVisibilityWind DirectionWind SpeedGust SpeedPrecipitationEventsConditions
12:10 AM-19 °C-23 °C71 %1023.4 hPa4.8 kmNNW (340°)11.1 km/h0.25 mmSnowLight Snow
12:53 AM-19.4 °C-22.8 °C75 %1030.5 hPa4.8 kmNNW (330°)11.1 km/h0.25 mmSnowLight Snow
1:15 AM-19 °C-23 °C71 %1024 hPa4 kmNorth (350°)9.3 km/h0 mmSnowLight Snow
1:25 AM-19 °C-23 °C71 %1024 hPa3.2 kmNNW (340°)7.4 km/h0.25 mmSnowLight Snow
1:33 AM-19 °C-23 °C71 %1024 hPa2.9 kmNNW (330°)9.3 km/h0.25 mmSnowLight Snow
1:44 AM-19 °C-23 °C71 %1024.4 hPa4 kmNW (320°)9.3 km/h0.25 mmSnowLight Snow
1:53 AM-19.4 °C-22.8 °C75 %1030.8 hPa4 kmNNW (330°)7.4 km/h0.25 mmSnowLight Snow
2:02 AM-19 °C-23 °C71 %1024 hPa4 kmNW (320°)9.3 km/h0.25 mmSnowLight Snow
2:09 AM-19 °C-23 °C71 %1024.4 hPa6.4 kmNW (320°)7.4 km/h0.25 mmSnowLight Snow
2:53 AM-19.4 °C-23.3 °C72 %1030.1 hPa12.9 kmWNW (300°)9.3 km/h0.25 mmSnowLight Snow
3:27 AM-19 °C-23 °C71 %1024 hPa4 kmWNW (300°)5.6 km/h0 mmSnowLight Snow
3:53 AM-19.4 °C-22.8 °C75 %1030.5 hPa3.2 kmCalm0 mmSnowLight Snow
4:21 AM-19 °C-23 °C71 %1024.4 hPa4.8 kmWest (260°)5.6 km/h0.25 mmSnowLight Snow
4:33 AM-19 °C-23 °C71 %1024.4 hPa4 kmCalm0.25 mmSnowLight Snow
4:43 AM-19 °C-23 °C71 %1024 hPa2.4 kmCalm0.25 mmSnowLight Snow
4:53 AM-19.4 °C-22.8 °C75 %1030.8 hPa1.9 kmWest (270°)5.6 km/h0.51 mmSnowLight Snow
5:03 AM-19 °C-23 °C71 %1024.4 hPa2.9 kmWest (260°)7.4 km/h0 mmSnowLight Snow
5:11 AM-19 °C-23 °C71 %1024.4 hPa3.2 kmWest (270°)5.6 km/h0 mmSnowLight Snow
5:22 AM-19 °C-23 °C71 %1023.7 hPa4.8 kmWSW (240°)7.4 km/h0 mmSnowLight Snow
5:53 AM-19.4 °C-22.8 °C75 %1029.8 hPa4.8 kmWSW (240°)7.4 km/h0 mmSnowLight Snow
5:58 AM-19 °C-23 °C71 %1023.4 hPa4 kmSW (230°)9.3 km/h0 mmSnowLight Snow
6:07 AM-19 °C-22 °C78 %1023.4 hPa4 kmSW (230°)5.6 km/h0.25 mmSnowLight Snow
6:16 AM-19 °C-22 °C78 %1023.4 hPa4.8 kmWSW (240°)5.6 km/h0.25 mmSnowLight Snow
6:25 AM-19 °C-22 °C78 %1023.7 hPa3.2 kmWest (260°)5.6 km/h0.25 mmSnowLight Snow
6:34 AM-19 °C-22 °C78 %1023.4 hPa3.2 kmCalm0.25 mmSnowLight Snow
6:53 AM-18.9 °C-21.7 °C79 %1029.5 hPa3.2 kmCalm0.51 mmSnowLight Snow
7:02 AM-19 °C-22 °C78 %1023 hPa2.4 kmCalm0 mmSnowLight Snow
7:40 AM-18 °C-21 °C78 %1022.7 hPa3.2 kmCalm0.25 mmSnowLight Snow
7:53 AM-18.3 °C-21.7 °C75 %1029.1 hPa1.9 kmCalm0.25 mmSnowLight Snow
8:53 AM-17.8 °C-21.1 °C76 %1029.1 hPa3.2 kmENE (70°)7.4 km/h0.51 mmSnowLight Snow
8:56 AM-18 °C-21 °C78 %1022.4 hPa4.8 kmEast (80°)7.4 km/h0 mmSnowLight Snow
9:53 AM-17.2 °C-20.6 °C75 %1028.4 hPa16.1 kmEast (100°)11.1 km/h0 mmOvercast
10:53 AM-16.7 °C-20 °C76 %1027.8 hPa8 kmCalm0 mmSnowLight Snow
11:53 AM-15.6 °C-18.9 °C76 %1026.4 hPa16.1 kmCalm0 mmOvercast
12:53 PM-15 °C-18.3 °C76 %1025.7 hPa16.1 kmEast (80°)7.4 km/hOvercast
1:53 PM-15 °C-18.3 °C76 %1025.1 hPa16.1 kmEast (80°)13 km/hOvercast
2:53 PM-13.9 °C-17.2 °C77 %1024 hPa16.1 kmENE (70°)13 km/hOvercast
3:53 PM-13.9 °C-17.2 °C77 %1023.4 hPa16.1 kmEast (80°)13 km/hOvercast
4:53 PM-14.4 °C-17.2 °C80 %1022.7 hPa16.1 kmENE (60°)13 km/hOvercast
5:53 PM-15 °C-17.8 °C80 %1022.7 hPa16.1 kmEast (80°)7.4 km/hPartly Cloudy
6:53 PM-15 °C-17.8 °C80 %1021.7 hPa16.1 kmNE (50°)9.3 km/hClear
7:53 PM-14.4 °C-17.2 °C80 %1021.3 hPa16.1 kmENE (70°)9.3 km/hOvercast
8:53 PM-13.9 °C-16.7 °C80 %1020.3 hPa16.1 kmCalmOvercast
9:53 PM-13.3 °C-16.1 °C80 %1019.6 hPa16.1 kmESE (110°)5.6 km/hMostly Cloudy
10:53 PM-12.8 °C-15.6 °C80 %1019.3 hPa16.1 kmNNE (20°)7.4 km/hMostly Cloudy
11:53 PM-13.3 °C-16.1 °C80 %1019.6 hPa16.1 kmEast (100°)7.4 km/hOvercast
Hourly data recorded from KHVR, located 0 kilometers away from Box Elder, Montana







STORIES FROM OUR PARTNERS